Location: *
(0.7700°N, 162.7770°E)
Time: 06:24:44
(UTC+00:00)

Daily predictions for brighter satellites

Satellite Brightness Start Highest point End
(mag) Time Altitude Azimuth Time Altitude Azimuth Time Altitude Azimuth
Cosmos 2227 Rocket 3.9 16:35:49 27° ESE 16:36:23 28° ESE 16:41:06 10° NE
Cosmos 2297 Rocket 4.0 16:37:14 23° SE 16:38:37 25° ESE 16:43:09 10° NE
SJ 16-02 4.1 16:35:49 10° NNE 16:42:04 11° SE 16:42:18 10° SE
S3M 4.4 16:43:16 56° ENE 16:43:16 56° ENE 16:48:46 10° NNE
Meteor 1-24 Rocket 4.5 16:49:31 45° ENE 16:49:31 45° ENE 16:53:36 10° NNE
SL-16 R/B 4.0 16:55:15 20° SSE 16:55:15 20° SSE 16:56:56 10° SSE
GPS 2-15 Rocket1 4.3 17:05:15 38° ESE 17:05:15 38° ESE 17:08:09 10° ESE
Atlas Centaur 2 3.9 17:02:59 33° NW 17:03:35 33° NNW 17:11:03 10° NNE
Cosmos 2322 Rocket 3.4 17:07:20 29° SSE 17:07:20 29° SSE 17:09:55 10° SSE
Cosmos 1315 Rocket 4.2 17:06:44 37° E 17:06:44 37° E 17:10:06 10° NNE
Cosmos 44 Rocket 3.9 17:08:41 10° N 17:13:46 59° ENE 17:18:49 10° SSE
Cosmos 1680 Rocket 4.5 17:13:50 19° SSE 17:17:10 44° ESE 17:22:03 10° NNE
SWIFT 3.1 17:18:01 47° NE 17:18:01 47° NE 17:21:46 10° E
ARIANE 5 DEB (SYLDA 5A) 3.6 17:29:00 24° ESE 17:29:00 24° ESE 17:30:40 10° E
ISS -2.9 17:31:55 47° ENE 17:31:55 47° ENE 17:34:23 10° NE
CZ-4B R/B 3.0 17:28:24 10° N 17:33:44 65° WNW 17:35:36 40° SW
Okean O Rocket 2.7 17:38:17 10° NNW 17:40:52 28° NW 17:40:52 28° NW
ATLAS CENTAUR R/B 3.8 17:40:51 10° N 17:44:59 29° ENE 17:49:12 10° SE
Yuri Rocket 3.5 17:46:01 40° W 17:47:30 58° NNW 17:53:15 10° NE
Ariane H10 2.7 17:48:24 44° S 17:48:28 44° S 17:51:19 10° E
Cosmos 2322 4.2 17:47:07 10° N 17:52:45 62° ENE 17:58:23 10° SSE
GPS 2-12 Rocket1 2.9 17:51:31 39° WSW 17:53:08 87° SSE 17:57:35 10° ENE
GPS 2-17 Rocket1 3.8 17:53:59 31° SW 17:54:59 35° SSW 17:59:07 10° SE
FUSE 3.9 17:53:35 30° WSW 17:56:16 88° NNW 18:01:36 10° ENE
BREEZE M DEB (TANK) 4.3 17:54:37 26° W 17:57:27 43° SW 18:12:31 10° SSE
Aureole 3 Rocket 3.5 17:53:34 10° S 17:57:54 81° E 18:04:02 10° N
USA 161 1.7 17:57:52 10° SSE 18:00:52 73° E 18:03:53 10° N
Meteor 1-21 Rocket 4.2 17:56:34 10° S 18:02:07 90° NNW 18:07:41 10° N
MSX 4.1 17:57:25 10° NNE 18:03:06 72° ESE 18:08:48 10° S
Feng Yun 1-1 Rocket 4.3 17:57:34 10° NNE 18:03:11 80° ESE 18:08:40 10° S
Hubble Space Telescope 1.0 18:04:44 25° W 18:06:48 49° SSW 18:10:49 10° SE
BREEZE-M DEB (TANK) 2.6 18:04:04 10° NW 18:07:21 51° SW 18:09:38 10° SSE
Cosmos 2082 4.2 18:05:15 16° SW 18:09:16 39° WNW 18:14:30 10° N
Cosmos 1125 Rocket 4.0 18:05:10 10° NW 18:09:54 35° WSW 18:14:38 10° SSW
ARIANE 5 DEB (SYLDA) 2.5 18:09:57 26° SW 18:11:08 43° S 18:16:18 10° E
Aurora 2 Rocket 2.7 18:12:00 23° WSW 18:13:17 32° SSW 18:16:44 10° SE
Cosmos 1674 4.1 18:13:29 19° W 18:13:29 19° W 18:16:08 10° NW
Tiangong 2 2.4 18:11:10 12° SSW 18:13:50 36° SE 18:16:46 10° ENE
Cosmos 2360 Rocket 2.3 18:09:31 10° NNW 18:14:55 49° WSW 18:20:21 10° S
COSMOS 2441 4.4 18:11:09 10° NNE 18:15:55 86° E 18:20:44 10° S
COSMOS 2455 3.0 18:10:41 10° SW 18:16:28 50° WNW 18:22:15 10° N
SJ 16-02 3.3 18:19:41 11° SW 18:19:41 11° SW 18:20:02 10° SW
Meteor 1-28 Rocket 3.2 18:14:13 10° S 18:17:47 51° W 18:21:21 10° NNW
Delta 2 Rocket 4.2 18:11:36 16° WSW 18:17:53 81° NNW 18:24:21 10° ENE
Cosmos 2227 Rocket 3.5 18:17:43 15° WSW 18:20:09 20° WNW 18:24:09 10° NNW
SL-14 R/B 3.2 18:16:18 10° S 18:20:20 72° W 18:24:22 10° N
Cosmos 2297 Rocket 3.4 18:19:08 14° WSW 18:22:22 22° WNW 18:26:40 10° NNW
Intelsat 5-3 Rocket 3.6 18:25:03 10° SSW 18:26:26 14° SSE 18:27:51 10° ESE
Meteor 2-13 Rocket 4.4 18:21:10 10° N 18:27:12 70° W 18:33:13 10° S
Palapa 6 Rocket 3.3 18:23:06 10° WNW 18:27:39 89° SSW 18:33:19 10° ESE
Abrixas rocket 2.3 18:26:43 10° SW 18:29:54 73° SE 18:33:04 10° NE
IDEFIX/ARIANE 42P 3.5 18:29:24 10° NNW 18:33:46 27° WNW 18:38:10 10° SW
Ariane H10-3 1.8 18:31:50 11° WSW 18:34:05 42° S 18:36:12 10° E
Cosmos 1626 2.5 18:31:51 10° S 18:35:32 70° E 18:39:12 10° N
Cosmos 1908 3.2 18:33:14 10° NNW 18:37:01 60° W 18:40:49 10° S
Cosmos 1726 2.4 18:34:15 10° N 18:37:52 71° E 18:41:31 10° S
OAO 3 Rocket 3.5 18:35:21 10° WNW 18:39:53 47° SW 18:44:30 10° SE
Cosmos 2219 Rocket 3.0 18:34:28 10° N 18:39:55 57° ENE 18:45:22 10° SSE
Cosmos 2333 Rocket 3.5 18:35:14 10° N 18:40:40 47° ENE 18:46:08 10° SSE
Cosmos 2333 4.2 18:38:23 10° NNW 18:44:00 73° WSW 18:49:42 10° S
SKYMED 2 4.1 18:41:01 10° SSE 18:45:20 68° ENE 18:49:37 10° N
COSMOS 2428 2.7 18:40:03 10° NNW 18:45:40 75° WSW 18:51:20 10° S
USA 116 3.7 18:41:58 10° S 18:46:15 68° WSW 18:50:00 10° NNW
